Temperature
20 19 19 19 19 19 19 19 19 19 19 19 19 19 19 19 19 19 19 19 19 19 19 19 18 18 18 18 18 18 18 18 18 18 18 18 18 18 18 18 18 17 17
20 19 19 19 19 19 19 19 19 19 19 19 19 19 19 19 19 19 19 19 19 19 18 18 18 18 18 18 18 18 18 18 18 18 18 18 18 18 18 18 17 17 17
20 19 19 19 19 19 19 19 19 19 19 19 19 19 19 19 19 19 19 19 19 18 18 18 18 18 18 18 18 18 18 18 18 18 18 18 18 18 18 17 17 17 17
20 20 19 19 19 19 19 19 19 19 19 19 19 19 19 19 19 19 19 18 18 18 18 18 18 18 18 18 18 18 18 18 18 18 18 18 18 18 17 17 17 17 17
20 19 19 19 19 19 19 19 19 19 19 19 19 19 19 19 18 18 18 18 18 18 18 18 18 18 18 18 18 18 18 18 18 18 18 18 18 18 17 17 17 17 17
20 19 19 19 19 19 19 19 19 19 19 19 19 19 19 19 18 18 18 18 18 18 18 18 18 18 18 18 18 18 18 18 18 18 18 18 18 17 17 17 17 17 17
20 19 19 19 19 19 19 19 19 19 19 19 19 19 19 19 18 18 18 18 18 18 18 18 18 18 18 18 18 18 18 18 18 18 18 18 18 17 17 17 17 17 17
19 19 19 19 19 19 19 19 19 19 19 19 19 19 18 18 18 18 18 18 18 18 18 18 18 18 18 18 18 18 18 18 18 18 18 18 17 17 17 17 17 17 17
19 19 19 19 19 19 19 19 18 18 19 19 19 19 18 18 18 18 18 18 18 18 18 18 18 18 18 18 18 18 18 18 18 18 18 18 18 17 17 17 17 17 17
19 19 19 19 19 19 18 18 18 18 18 18 18 18 18 18 18 18 18 18 18 18 18 18 18 18 18 18 18 18 18 18 18 18 17 17 18 18 17 17 17 17 17
19 19 19 19 19 19 18 18 18 18 18 18 18 18 18 18 18 18 18 18 18 18 18 18 17 17 17 18 18 18 18 18 18 18 18 17 18 18 17 17 17 17 17
19 19 19 19 19 18 18 18 18 18 18 18 18 18 18 18 18 18 18 18 18 18 18 18 17 17 18 18 18 18 18 18 18 18 18 18 17 18 17 17 17 17 17
19 19 19 18 18 18 18 18 18 18 18 18 18 18 18 18 18 18 18 18 18 18 18 17 17 17 17 18 18 18 18 18 18 18 18 18 17 17 17 17 17 17 17
19 19 19 19 18 18 18 18 18 18 18 18 18 18 18 18 18 18 18 18 18 18 18 17 17 17 17 17 18 18 18 18 18 18 18 18 17 17 17 17 17 17 17
19 19 19 19 18 18 18 18 18 18 18 18 18 18 18 18 18 18 18 18 18 18 17 17 17 17 17 17 17 17 18 18 18 18 18 17 17 17 17 17 17 17 17
19 19 19 19 18 18 18 18 18 18 18 18 18 18 18 18 18 18 18 18 18 17 17 17 17 17 17 17 17 17 17 17 17 18 17 17 17 17 17 17 17 17 17
19 19 19 19 19 18 18 18 18 18 18 18 18 18 18 18 18 18 18 18 18 17 17 17 17 17 17 17 17 17 17 17 17 17 17 17 17 17 17 17 17 17 17
19 19 19 19 19 18 18 18 18 18 18 18 18 18 18 18 18 18 18 18 17 17 17 17 17 17 17 17 17 17 17 17 17 17 17 17 17 17 17 17 17 17 17
19 19 19 19 19 18 18 18 18 18 18 18 18 18 18 18 18 18 18 18 17 17 17 17 17 17 17 17 17 17 17 17 17 17 17 17 17 17 17 17 17 17 17
19 19 19 18 18 18 18 18 18 18 18 18 18 18 18 18 18 18 17 17 17 17 17 17 17 17 17 17 17 17 17 17 17 17 17 17 17 17 17 17 17 17 17
19 19 18 18 18 18 18 18 18 18 18 18 17 17 17 17 17 17 17 17 17 17 17 17 17 17 17 17 17 17 17 17 17 17 17 17 17 17 17 17 17 17 17
19 19 19 18 18 18 18 18 18 18 17 17 17 17 17 17 17 17 17 17 17 17 17 17 17 17 17 17 17 17 17 17 17 17 17 17 17 17 17 17 17 17 17
19 19 18 18 18 18 18 18 17 17 17 17 17 17 17 17 17 17 17 17 17 17 17 17 17 17 17 17 17 17 16 16 16 17 17 17 17 17 17 17 17 16 16
19 19 18 18 18 18 18 18 17 17 17 17 17 17 17 17 17 17 17 17 17 17 17 17 17 17 17 17 17 16 16 16 16 16 16 17 17 17 17 16 16 16 16
19 18 18 18 18 18 18 18 17 17 17 17 17 17 17 17 17 17 17 17 17 17 17 17 17 16 16 16 16 16 16 16 16 16 16 16 16 16 16 16 16 16 16
19 18 18 18 18 18 18 18 17 17 17 17 17 17 17 17 17 17 17 17 17 17 16 16 16 16 16 16 16 16 16 16 16 16 16 16 16 16 16 16 16 16 16
Wind_Speed
1 3 8 9 11 11 11 11 11 12 13 13 14 14 14 15 16 16 16 15 14 14 13 13 12 12 12 12 12 12 11 11 11 11 11 11 11 11 11 11 11 10 11
3 5 9 10 10 11 11 11 11 11 12 12 13 13 13 15 15 15 15 14 13 12 12 12 11 11 11 12 12 12 11 11 11 11 11 10 10 10 10 10 10 9 11
4 6 9 10 10 11 11 11 11 11 11 12 12 12 12 14 14 14 14 13 12 12 11 11 11 11 10 10 11 10 10 10 10 10 9 8 8 9 10 9 9 10 10
6 7 8 10 10 10 10 10 10 10 11 11 11 11 11 12 13 13 13 13 12 11 11 10 10 10 9 9 10 10 9 9 9 9 7 6 6 8 8 9 9 10 10
5 6 8 10 10 10 10 9 9 9 9 10 10 11 11 11 11 12 12 11 11 11 10 10 9 9 9 8 9 9 9 8 8 7 6 5 5 7 8 8 8 9 9
4 6 8 10 10 9 9 9 9 9 8 8 9 10 10 10 10 10 11 10 10 10 9 9 9 9 8 8 8 8 8 8 6 5 6 5 5 7 8 8 8 9 9
4 5 7 9 9 9 8 8 7 7 7 7 7 8 9 9 9 9 9 9 9 8 8 8 8 8 8 8 7 7 8 7 6 5 6 6 6 7 7 8 8 8 8
4 4 5 7 8 7 7 7 7 7 6 6 6 7 8 9 9 8 8 8 8 7 7 7 7 7 7 7 7 7 7 6 5 5 5 6 7 8 8 8 8 9 9
4 4 3 4 5 6 6 6 6 5 5 4 5 6 7 8 7 7 7 7 7 7 6 6 6 6 6 6 6 6 6 6 5 4 5 6 8 9 9 9 9 9 9
4 4 3 4 3 2 3 4 4 4 4 4 4 5 6 6 6 6 6 6 6 6 6 5 5 5 6 6 6 6 6 5 5 5 5 6 9 10 9 9 9 9 9
3 2 2 3 3 2 2 2 2 3 2 2 2 2 3 3 3 4 5 6 6 6 5 5 5 5 5 6 6 6 5 4 4 4 5 7 9 10 10 10 10 10 10
2 1 2 2 2 1 1 1 1 1 1 0 0 1 1 1 2 3 5 6 5 5 4 4 4 5 4 3 4 4 4 4 4 5 6 8 9 10 10 10 11 10 10
2 1 1 1 1 1 0 1 1 1 1 1 1 1 1 1 1 2 2 3 3 3 2 3 3 2 2 2 2 3 4 4 4 5 6 8 9 9 10 10 11 10 10
2 1 1 1 1 0 0 0 0 0 0 1 2 1 1 0 1 1 1 1 1 1 2 2 1 2 2 3 4 4 4 4 4 5 6 8 8 9 10 10 10 10 10
2 0 0 0 0 0 0 1 0 1 1 1 1 1 2 1 1 0 1 1 1 1 1 1 2 1 2 2 3 3 3 4 5 5 5 7 8 9 9 9 10 10 10
1 1 1 1 1 1 1 1 1 1 2 1 2 2 2 2 2 1 1 1 1 1 2 2 2 2 2 2 2 2 3 3 4 4 5 6 8 8 8 9 9 10 10
2 1 1 1 1 0 0 1 1 1 1 1 2 2 1 2 2 1 1 2 2 2 1 1 1 1 2 2 2 2 2 2 3 3 4 5 5 6 7 7 9 10 10
1 0 1 0 1 1 0 0 0 0 0 1 1 1 1 1 2 2 1 2 2 1 0 1 1 1 1 2 2 1 1 1 2 2 2 2 3 3 5 6 7 8 9
1 1 0 1 1 0 1 1 0 1 0 1 1 1 1 1 1 1 1 1 0 0 0 1 0 0 1 1 1 1 1 1 1 1 1 2 2 2 3 4 5 6 7
1 1 1 0 0 1 1 1 2 2 1 1 1 1 1 1 0 1 1 0 0 1 0 1 0 1 0 1 1 0 0 1 1 1 2 2 2 3 3 3 4 5 5
0 1 1 1 1 1 1 1 1 1 1 1 1 1 1 1 0 1 0 0 1 0 0 1 1 0 1 1 1 1 1 0 1 1 1 1 2 2 2 3 3 3 4
1 1 1 0 1 1 0 1 1 1 1 0 1 1 1 1 1 1 0 0 0 1 1 1 1 1 0 1 1 1 1 1 1 1 1 1 1 1 2 3 2 3 3
2 2 1 0 0 1 1 1 1 2 2 2 2 2 1 1 1 1 1 1 1 1 0 0 0 1 0 0 1 1 1 1 1 1 1 1 1 1 2 2 2 3 3
3 2 1 0 0 1 1 1 1 1 0 1 1 1 2 2 2 1 1 1 1 1 0 0 0 0 1 0 0 0 1 1 1 1 1 1 1 1 2 2 2 3 3
2 2 1 1 1 1 2 1 1 0 0 0 1 2 2 2 2 2 1 1 1 1 1 0 0 1 1 1 1 0 1 1 1 1 1 2 1 1 1 2 2 2 3
1 1 1 1 0 1 1 2 1 1 1 1 1 1 1 2 2 3 2 1 1 1 0 0 0 1 1 1 1 1 1 1 1 1 1 1 2 2 2 1 2 2 3
Wind_Direction
178 156 143 135 133 131 129 126 122 121 123 128 131 133 135 139 142 144 143 142 142 141 141 140 141 141 140 140 139 139 138 136 133 135 135 135 134 134 134 133 131 129 129
155 149 143 137 135 131 128 125 124 125 124 126 129 131 133 137 141 143 142 140 142 143 142 143 144 142 141 141 141 141 141 139 139 140 140 136 135 135 136 136 136 135 136
123 135 138 135 134 130 128 126 126 128 127 128 129 130 132 139 142 143 145 144 144 144 145 144 146 145 145 145 146 145 144 144 143 142 138 132 136 140 142 145 143 142 142
126 131 136 135 134 132 128 124 125 128 130 130 131 132 133 136 141 145 148 149 149 149 151 148 149 150 150 152 151 148 148 149 149 146 138 137 145 150 151 149 149 148 148
120 130 137 136 135 131 128 127 126 128 130 131 134 135 137 140 144 147 150 151 152 155 156 156 156 155 155 156 155 152 151 153 154 151 146 147 154 161 161 158 156 155 155
114 131 141 138 137 134 131 130 129 129 130 130 136 140 141 144 146 145 151 153 158 161 160 163 162 160 162 161 159 160 157 158 157 151 154 159 165 173 173 171 168 166 164
114 127 142 140 139 137 135 134 134 131 131 134 141 149 151 150 148 149 153 160 166 167 166 167 167 168 170 167 168 169 166 164 159 158 165 172 181 188 185 179 178 175 172
110 114 128 135 137 136 137 139 137 132 128 136 148 158 161 158 159 159 163 166 171 175 176 178 181 182 181 175 175 177 176 175 168 168 179 187 193 194 190 186 184 183 180
88 89 94 115 132 139 141 144 140 135 136 146 156 161 166 168 169 170 171 173 176 183 190 193 192 189 188 184 185 191 190 185 170 173 189 196 202 202 200 196 193 191 190
76 67 62 70 78 109 144 145 145 144 142 146 153 166 174 178 178 179 179 182 190 195 201 205 203 203 198 193 200 205 201 195 183 186 196 201 205 206 206 203 198 195 194
86 60 60 60 62 68 111 150 148 139 138 154 158 187 191 184 190 194 199 205 206 207 207 209 215 220 215 210 215 216 211 198 186 192 201 209 210 210 209 208 204 201 200
130 106 78 65 68 70 114 85 80 90 82 313 254 267 273 211 216 214 217 221 222 219 219 221 227 229 228 220 225 226 206 205 198 204 214 218 216 213 213 212 209 208 206
154 125 82 79 98 124 30 59 42 30 14 316 297 280 283 303 279 259 253 241 238 245 265 253 248 246 227 222 223 219 211 212 212 217 225 222 221 220 220 217 214 213 210
128 114 50 65 58 330 330 277 201 259 287 298 284 258 210 239 318 323 313 290 275 269 276 283 271 264 249 239 231 227 221 212 216 221 226 224 223 222 224 219 215 213 211
119 123 239 173 180 233 197 238 225 246 232 258 280 267 206 184 197 218 300 288 270 255 263 288 283 284 273 258 238 227 227 220 219 219 226 232 233 228 228 219 213 216 214
158 223 253 211 232 205 216 228 243 244 243 246 263 258 218 200 193 189 235 264 262 247 238 248 257 254 262 254 242 233 227 227 228 224 231 239 239 234 227 221 215 215 214
180 195 216 198 70 66 271 253 241 247 236 238 260 271 237 205 199 198 221 251 265 251 242 240 269 255 245 233 233 223 213 225 234 234 236 236 238 232 226 222 220 220 219
146 147 285 291 59 28 333 295 268 278 215 256 267 276 255 224 201 195 215 249 264 243 240 238 264 248 243 227 230 237 219 200 212 220 224 223 221 224 225 222 219 221 221
186 188 222 1 62 7 340 357 358 15 354 288 301 310 292 253 217 189 220 253 233 124 72 275 317 219 216 218 217 214 225 221 210 205 206 211 207 205 213 222 213 214 217
189 176 175 110 33 20 27 15 15 11 352 352 321 313 310 285 190 170 202 316 77 98 45 28 5 12 167 193 197 194 227 219 177 186 201 195 200 208 212 218 214 216 208
92 135 131 83 12 39 32 355 341 318 327 354 332 328 325 330 133 147 230 20 57 80 115 67 66 40 54 94 98 36 8 160 172 184 187 195 211 216 208 206 203 209 218
153 137 101 59 19 25 336 283 246 244 286 329 353 5 6 24 53 158 127 108 98 76 50 58 78 80 81 94 110 104 23 353 341 248 196 201 219 211 211 209 200 200 206
187 198 207 218 47 12 16 35 29 36 27 24 14 7 2 47 60 59 46 66 74 107 202 201 107 136 141 46 77 136 148 231 316 331 275 246 230 219 223 206 203 206 204
207 195 188 290 40 43 73 75 95 106 352 318 350 359 2 30 46 49 43 49 63 71 130 248 124 124 132 175 287 81 153 161 169 302 312 296 248 222 221 217 219 218 217
195 168 145 57 2 22 71 99 105 134 212 0 33 24 17 10 16 25 37 47 45 31 358 355 87 134 149 167 175 168 98 74 111 181 273 314 327 280 244 236 224 228 224
173 150 131 126 50 27 65 75 90 128 128 90 37 8 4 0 6 14 18 13 3 12 318 284 186 173 172 170 166 141 144 151 187 181 218 282 301 300 278 246 236 240 230
Height
1504 1504 1505 1505 1506 1506 1507 1508 1509 1510 1511 1512 1513 1514 1515 1517 1519 1521 1523 1525 1527 1529 1531 1533 1534 1536 1537 1538 1540 1541 1542 1543 1544 1545 1546 1547 1548 1548 1549 1550 1551 1551 1552
1505 1505 1506 1506 1508 1508 1509 1510 1511 1511 1512 1513 1514 1515 1516 1518 1520 1522 1524 1526 1528 1530 1532 1533 1535 1536 1538 1539 1541 1542 1543 1544 1545 1546 1547 1548 1548 1549 1550 1551 1551 1552 1553
1506 1507 1507 1508 1509 1510 1511 1512 1513 1513 1514 1515 1516 1517 1518 1519 1521 1523 1525 1527 1529 1531 1532 1534 1535 1537 1538 1540 1541 1542 1544 1545 1546 1547 1547 1548 1549 1550 1550 1551 1552 1553 1554
1508 1508 1509 1510 1511 1512 1513 1514 1514 1515 1516 1517 1518 1519 1520 1521 1522 1524 1526 1528 1529 1531 1533 1534 1536 1537 1539 1540 1542 1543 1544 1545 1546 1547 1548 1548 1549 1550 1551 1551 1552 1553 1554
1509 1510 1511 1512 1513 1514 1515 1515 1516 1517 1518 1518 1519 1520 1521 1522 1524 1525 1527 1529 1530 1532 1533 1535 1536 1538 1539 1540 1542 1543 1544 1545 1546 1547 1548 1549 1549 1550 1551 1551 1552 1553 1554
1511 1512 1513 1513 1514 1515 1516 1517 1518 1519 1519 1520 1521 1522 1523 1524 1525 1526 1528 1529 1531 1532 1533 1535 1537 1538 1539 1540 1542 1543 1544 1545 1546 1547 1548 1549 1549 1550 1551 1551 1552 1553 1554
1513 1513 1514 1515 1516 1517 1518 1518 1519 1520 1520 1521 1522 1523 1524 1525 1526 1527 1528 1530 1531 1533 1534 1535 1537 1538 1539 1540 1542 1543 1544 1545 1546 1547 1548 1548 1549 1550 1550 1551 1552 1553 1554
1514 1515 1516 1517 1517 1518 1519 1520 1520 1521 1521 1522 1522 1523 1524 1526 1527 1528 1529 1530 1531 1533 1534 1535 1537 1538 1539 1540 1541 1543 1544 1545 1546 1546 1547 1548 1549 1549 1550 1551 1552 1553 1553
1517 1517 1518 1518 1519 1520 1521 1521 1522 1522 1522 1523 1523 1524 1525 1526 1527 1528 1530 1531 1532 1533 1534 1536 1537 1537 1538 1540 1541 1542 1543 1544 1545 1546 1547 1548 1548 1549 1549 1550 1551 1552 1553
1518 1519 1520 1520 1521 1522 1522 1523 1523 1523 1523 1523 1524 1525 1526 1527 1528 1529 1530 1531 1532 1533 1534 1535 1536 1537 1538 1539 1540 1541 1542 1543 1544 1545 1546 1547 1547 1548 1548 1549 1550 1551 1552
1520 1521 1521 1521 1522 1523 1523 1524 1524 1524 1524 1524 1524 1525 1526 1527 1528 1529 1530 1531 1532 1533 1533 1534 1535 1536 1537 1538 1539 1540 1541 1542 1543 1543 1544 1545 1546 1547 1547 1548 1549 1550 1551
1521 1522 1523 1523 1523 1524 1524 1524 1525 1525 1525 1525 1525 1525 1526 1527 1528 1529 1530 1530 1531 1532 1533 1533 1534 1535 1536 1537 1537 1538 1539 1540 1541 1542 1542 1543 1544 1545 1546 1547 1548 1549 1550
1523 1524 1524 1525 1525 1525 1525 1525 1525 1526 1526 1525 1526 1526 1527 1527 1528 1529 1530 1530 1530 1531 1532 1532 1533 1534 1534 1535 1536 1536 1537 1538 1539 1540 1541 1541 1542 1543 1544 1545 1546 1547 1548
1525 1525 1526 1526 1526 1526 1527 1526 1526 1526 1526 1526 1526 1527 1527 1528 1528 1528 1529 1529 1529 1530 1531 1531 1532 1532 1533 1533 1534 1534 1535 1536 1536 1538 1538 1539 1540 1541 1542 1543 1544 1545 1546
1526 1526 1527 1527 1527 1527 1527 1527 1527 1527 1526 1526 1526 1527 1527 1527 1528 1528 1529 1529 1529 1530 1530 1530 1530 1531 1531 1531 1532 1532 1533 1533 1534 1535 1536 1537 1538 1540 1541 1542 1543 1543 1544
1527 1527 1527 1527 1527 1527 1527 1527 1527 1526 1526 1527 1527 1527 1527 1527 1528 1528 1529 1529 1529 1529 1529 1529 1529 1529 1529 1529 1529 1530 1531 1532 1532 1533 1534 1535 1536 1537 1538 1540 1540 1541 1542
1527 1527 1527 1527 1527 1527 1527 1527 1527 1527 1527 1527 1527 1527 1527 1527 1528 1528 1528 1528 1528 1528 1528 1527 1527 1527 1527 1527 1527 1528 1528 1529 1530 1531 1532 1533 1534 1535 1536 1537 1538 1539 1540
1527 1527 1527 1527 1527 1527 1527 1527 1527 1527 1526 1526 1526 1526 1527 1527 1527 1527 1527 1527 1527 1527 1526 1526 1525 1525 1525 1525 1525 1526 1526 1527 1528 1529 1530 1531 1532 1533 1534 1535 1536 1537 1538
1527 1527 1527 1527 1527 1527 1527 1527 1526 1526 1526 1526 1526 1526 1526 1526 1527 1527 1527 1526 1526 1525 1525 1524 1523 1523 1523 1523 1523 1524 1525 1525 1526 1527 1528 1529 1530 1531 1532 1533 1533 1534 1535
1526 1526 1527 1527 1527 1527 1526 1526 1526 1526 1526 1526 1526 1526 1526 1526 1526 1526 1526 1525 1525 1524 1524 1523 1522 1522 1521 1521 1522 1522 1523 1523 1524 1525 1526 1527 1528 1529 1530 1531 1532 1532 1533
1525 1525 1526 1526 1526 1526 1526 1526 1525 1525 1525 1525 1526 1526 1526 1526 1526 1525 1525 1524 1524 1523 1523 1522 1522 1521 1520 1520 1521 1521 1521 1522 1522 1524 1524 1526 1527 1528 1529 1529 1530 1531 1532
1525 1525 1526 1526 1526 1526 1526 1525 1525 1525 1525 1525 1525 1525 1525 1525 1525 1525 1524 1523 1523 1523 1522 1522 1521 1520 1520 1520 1520 1520 1520 1522 1521 1522 1523 1524 1525 1526 1527 1528 1528 1529 1530
1525 1525 1526 1526 1526 1526 1525 1525 1525 1524 1524 1524 1524 1524 1524 1524 1524 1524 1523 1523 1523 1522 1522 1521 1521 1520 1520 1520 1520 1521 1521 1520 1520 1521 1521 1522 1523 1524 1525 1526 1527 1527 1528
1525 1525 1526 1526 1526 1525 1525 1524 1523 1523 1523 1523 1523 1523 1524 1524 1523 1523 1523 1522 1522 1522 1521 1521 1520 1520 1520 1519 1520 1520 1520 1520 1520 1520 1520 1520 1521 1521 1522 1524 1525 1525 1526
1524 1525 1525 1526 1526 1525 1524 1523 1522 1522 1522 1522 1522 1522 1523 1523 1522 1522 1522 1522 1521 1521 1521 1520 1519 1519 1519 1519 1518 1518 1518 1519 1519 1519 1518 1519 1519 1519 1520 1521 1522 1523 1523
1523 1524 1524 1524 1524 1524 1523 1522 1522 1521 1521 1521 1521 1521 1521 1521 1521 1521 1521 1520 1520 1520 1520 1519 1519 1518 1518 1518 1518 1517 1517 1517 1517 1517 1517 1516 1517 1517 1518 1519 1520 1520 1521